• în România
  • Lista ţărilor
  • Pe 7 zile
  • Temperatura apei
  • Hartă satelitară
  • Meteo pe hartă
  • Widget-uri
  • user-avatar
    Intrare

    Meteo pe oră la Iskra

    Astăzi, 17 Iulie, Marţi

    Timp Temperatura Precipitaţii Vânt Presiune Umiditate
    00:00 +19°C° 0 mm 2 m/s 742 mmHg 86%
    01:00 +18°C° 0 mm 2 m/s 742 mmHg 87%
    02:00 +18°C° 0 mm 3 m/s 742 mmHg 88%
    03:00 +18°C° 0 mm 3 m/s 742 mmHg 85%
    04:00 +19°C° 0 mm 3 m/s 742 mmHg 83%
    05:00 +19°C° 0 mm 3 m/s 742 mmHg 80%
    06:00 +21°C° 0 mm 4 m/s 742 mmHg 73%
    07:00 +22°C° 0 mm 4 m/s 742 mmHg 66%
    08:00 +25°C° 0 mm 5 m/s 742 mmHg 59%
    09:00 +26°C° 0 mm 5 m/s 742 mmHg 55%
    10:00 +27°C° 0 mm 5 m/s 742 mmHg 52%
    11:00 +28°C° 0 mm 6 m/s 741 mmHg 48%
    12:00 +28°C° 0 mm 6 m/s 741 mmHg 47%
    13:00 +29°C° 0 mm 6 m/s 741 mmHg 46%
    14:00 +29°C° 0 mm 6 m/s 741 mmHg 44%
    15:00 +29°C° 0 mm 5 m/s 740 mmHg 46%
    16:00 +28°C° 0 mm 5 m/s 740 mmHg 47%
    17:00 +28°C° 0 mm 5 m/s 740 mmHg 49%
    18:00 +26°C° 0 mm 4 m/s 740 mmHg 54%
    19:00 +25°C° 0 mm 4 m/s 740 mmHg 59%
    20:00 +22°C° 0 mm 3 m/s 740 mmHg 64%
    21:00 +22°C° 0 mm 4 m/s 739 mmHg 66%
    22:00 +21°C° 0 mm 4 m/s 739 mmHg 67%
    23:00 +21°C° 0 mm 4 m/s 739 mmHg 69%

    Mâine, 18 Iulie, Miercuri

    Timp Temperatura Precipitaţii Vânt Presiune Umiditate
    00:00 +20°C° 0 mm 4 m/s 739 mmHg 71%
    01:00 +20°C° 0 mm 4 m/s 739 mmHg 73%
    02:00 +20°C° 0 mm 4 m/s 739 mmHg 75%
    03:00 +20°C° 0,2 mm 4 m/s 739 mmHg 76%
    04:00 +19°C° 0,2 mm 4 m/s 739 mmHg 78%
    05:00 +19°C° 0,2 mm 5 m/s 739 mmHg 80%
    06:00 +20°C° 0,1 mm 5 m/s 739 mmHg 76%
    07:00 +21°C° 0,1 mm 5 m/s 739 mmHg 72%
    08:00 +22°C° 0,1 mm 5 m/s 739 mmHg 68%
    09:00 +23°C° 0 mm 5 m/s 739 mmHg 64%
    10:00 +26°C° 0 mm 6 m/s 739 mmHg 60%
    11:00 +27°C° 0 mm 6 m/s 739 mmHg 56%
    12:00 +27°C° 0,5 mm 6 m/s 739 mmHg 59%
    13:00 +27°C° 0,5 mm 6 m/s 738 mmHg 62%
    14:00 +27°C° 0,5 mm 5 m/s 738 mmHg 64%
    15:00 +26°C° 0,5 mm 5 m/s 738 mmHg 69%
    16:00 +25°C° 0,5 mm 5 m/s 738 mmHg 73%
    17:00 +25°C° 0,5 mm 5 m/s 738 mmHg 78%
    18:00 +23°C° 0,1 mm 4 m/s 738 mmHg 79%
    19:00 +21°C° 0,1 mm 4 m/s 738 mmHg 80%
    20:00 +20°C° 0,1 mm 4 m/s 738 mmHg 80%
    21:00 +20°C° 0 mm 4 m/s 738 mmHg 82%
    22:00 +20°C° 0 mm 4 m/s 738 mmHg 83%
    23:00 +19°C° 0 mm 4 m/s 738 mmHg 85%

    Poimâine, 19 Iulie, Joi

    Timp Temperatura Precipitaţii Vânt Presiune Umiditate
    00:00 +19°C° 0 mm 4 m/s 738 mmHg 84%
    01:00 +19°C° 0 mm 4 m/s 738 mmHg 84%
    02:00 +19°C° 0 mm 4 m/s 738 mmHg 84%
    03:00 +19°C° 0 mm 4 m/s 738 mmHg 83%
    04:00 +19°C° 0 mm 4 m/s 738 mmHg 83%
    05:00 +19°C° 0 mm 4 m/s 738 mmHg 82%
    06:00 +20°C° 0 mm 4 m/s 738 mmHg 80%
    07:00 +21°C° 0 mm 5 m/s 738 mmHg 77%
    08:00 +22°C° 0 mm 5 m/s 738 mmHg 74%
    09:00 +22°C° 0 mm 5 m/s 738 mmHg 74%
    10:00 +22°C° 0 mm 5 m/s 738 mmHg 75%
    11:00 +22°C° 0 mm 5 m/s 738 mmHg 75%
    12:00 +22°C° 0,1 mm 5 m/s 738 mmHg 74%
    13:00 +23°C° 0,1 mm 5 m/s 738 mmHg 73%
    14:00 +23°C° 0,1 mm 5 m/s 738 mmHg 72%
    15:00 +23°C° 0,2 mm 5 m/s 738 mmHg 73%
    16:00 +23°C° 0,2 mm 5 m/s 738 mmHg 75%
    17:00 +23°C° 0,2 mm 4 m/s 738 mmHg 76%
    18:00 +22°C° 0,1 mm 4 m/s 738 mmHg 80%
    19:00 +21°C° 0,1 mm 4 m/s 738 mmHg 83%
    20:00 +21°C° 0,1 mm 3 m/s 738 mmHg 87%
    21:00 +20°C° 0,1 mm 4 m/s 738 mmHg 89%
    22:00 +20°C° 0,1 mm 4 m/s 738 mmHg 92%
    23:00 +19°C° 0,1 mm 4 m/s 738 mmHg 94%

    20 Iulie, Vineri

    Timp Temperatura Precipitaţii Vânt Presiune Umiditate
    00:00 +19°C° 0 mm 4 m/s 737 mmHg 95%
    01:00 +19°C° 0 mm 4 m/s 737 mmHg 96%
    02:00 +18°C° 0 mm 4 m/s 737 mmHg 97%
    03:00 +18°C° 0 mm 4 m/s 738 mmHg 96%
    04:00 +19°C° 0 mm 4 m/s 738 mmHg 95%
    05:00 +19°C° 0 mm 4 m/s 738 mmHg 94%
    06:00 +20°C° 0 mm 4 m/s 738 mmHg 92%
    07:00 +20°C° 0 mm 5 m/s 738 mmHg 89%
    08:00 +21°C° 0 mm 5 m/s 738 mmHg 87%
    09:00 +21°C° 0,4 mm 5 m/s 738 mmHg 85%
    10:00 +22°C° 0,4 mm 5 m/s 739 mmHg 83%
    11:00 +23°C° 0,4 mm 5 m/s 739 mmHg 80%
    12:00 +23°C° 0,9 mm 5 m/s 739 mmHg 80%
    13:00 +25°C° 0,9 mm 5 m/s 738 mmHg 79%
    14:00 +25°C° 0,9 mm 5 m/s 738 mmHg 79%
    15:00 +25°C° 0,6 mm 5 m/s 738 mmHg 79%
    16:00 +25°C° 0,6 mm 4 m/s 738 mmHg 79%
    17:00 +25°C° 0,6 mm 4 m/s 738 mmHg 80%
    18:00 +23°C° 0,8 mm 4 m/s 738 mmHg 83%
    19:00 +22°C° 0,8 mm 3 m/s 738 mmHg 86%
    20:00 +21°C° 0,8 mm 3 m/s 738 mmHg 90%
    21:00 +21°C° 0,2 mm 3 m/s 737 mmHg 92%
    22:00 +20°C° 0,2 mm 3 m/s 737 mmHg 94%
    23:00 +20°C° 0,2 mm 3 m/s 737 mmHg 96%

    21 Iulie, Sâmbătă

    Timp Temperatura Precipitaţii Vânt Presiune Umiditate
    00:00 +19°C° 0 mm 3 m/s 737 mmHg 96%
    01:00 +19°C° 0 mm 3 m/s 737 mmHg 97%
    02:00 +19°C° 0 mm 3 m/s 737 mmHg 97%
    03:00 +19°C° 0 mm 3 m/s 738 mmHg 97%
    04:00 +19°C° 0 mm 3 m/s 738 mmHg 96%
    05:00 +20°C° 0 mm 3 m/s 738 mmHg 95%
    06:00 +21°C° 0 mm 3 m/s 738 mmHg 91%
    07:00 +22°C° 0 mm 4 m/s 738 mmHg 86%
    08:00 +23°C° 0 mm 4 m/s 738 mmHg 81%
    09:00 +25°C° 0,4 mm 4 m/s 738 mmHg 79%
    10:00 +26°C° 0,4 mm 4 m/s 738 mmHg 77%
    11:00 +27°C° 0,4 mm 4 m/s 738 mmHg 75%
    12:00 +28°C° 0,7 mm 4 m/s 738 mmHg 74%
    13:00 +28°C° 0,7 mm 4 m/s 738 mmHg 73%
    14:00 +28°C° 0,7 mm 4 m/s 737 mmHg 72%
    15:00 +27°C° 0,7 mm 4 m/s 737 mmHg 76%
    16:00 +26°C° 0,7 mm 4 m/s 737 mmHg 80%
    17:00 +25°C° 0,7 mm 4 m/s 737 mmHg 84%
    18:00 +23°C° 0 mm 4 m/s 737 mmHg 85%
    19:00 +24°C° 0 mm 3 m/s 737 mmHg 87%
    20:00 +22°C° 0 mm 3 m/s 737 mmHg 88%
    21:00 +21°C° 0,1 mm 3 m/s 737 mmHg 90%
    22:00 +21°C° 0,1 mm 3 m/s 737 mmHg 91%
    23:00 +20°C° 0,1 mm 3 m/s 737 mmHg 92%

    22 Iulie, Duminică

    Timp Temperatura Precipitaţii Vânt Presiune Umiditate
    00:00 +20°C° 0,4 mm 3 m/s 737 mmHg 94%
    01:00 +20°C° 0,4 mm 3 m/s 737 mmHg 95%
    02:00 +20°C° 0,4 mm 3 m/s 737 mmHg 96%
    03:00 +20°C° 0 mm 3 m/s 737 mmHg 96%
    04:00 +20°C° 0 mm 4 m/s 737 mmHg 96%
    05:00 +20°C° 0 mm 4 m/s 737 mmHg 96%
    06:00 +21°C° 0 mm 4 m/s 737 mmHg 93%
    07:00 +22°C° 0 mm 4 m/s 737 mmHg 90%
    08:00 +23°C° 0 mm 4 m/s 737 mmHg 87%
    09:00 +23°C° 0,4 mm 4 m/s 737 mmHg 86%
    10:00 +25°C° 0,4 mm 4 m/s 737 mmHg 85%
    11:00 +25°C° 0,4 mm 4 m/s 737 mmHg 83%
    12:00 +26°C° 0,7 mm 4 m/s 737 mmHg 81%
    13:00 +27°C° 0,7 mm 4 m/s 737 mmHg 78%
    14:00 +27°C° 0,7 mm 4 m/s 737 mmHg 76%
    15:00 +27°C° 0,7 mm 4 m/s 737 mmHg 78%
    16:00 +27°C° 0,7 mm 3 m/s 737 mmHg 80%
    17:00 +26°C° 0,7 mm 3 m/s 737 mmHg 82%
    18:00 +25°C° 0,9 mm 3 m/s 737 mmHg 86%
    19:00 +24°C° 0,9 mm 3 m/s 737 mmHg 89%
    20:00 +23°C° 0,9 mm 2 m/s 737 mmHg 93%
    21:00 +23°C° 1,1 mm 2 m/s 737 mmHg 94%
    22:00 +21°C° 1,1 mm 2 m/s 737 mmHg 95%
    23:00 +21°C° 1,1 mm 2 m/s 737 mmHg 96%
    Arată mai mult